GW5942 Weather Reports


time (UTC)temp
C
wind
direction
speed
KPH
gust
KPH
rain 1hr
cm
rain 24hr
cm
rain mn
cm
humidity
%
barometer
mb
20260505035007 12 126 1.6 4.8 0.00 0.00 0.00 78 1015.5
20260505034831 12 180 0.0 3.2 0.00 0.00 0.00 80 1011.8
20260505034524 12 110 1.6 9.7 0.00 0.00 0.00 78 1015.4
20260505034009 12 112 3.2 9.7 0.00 0.00 0.00 79 1015.4
20260505033830 12 180 1.6 4.8 0.00 0.00 0.00 79 1011.8
20260505033508 12 163 1.6 4.8 0.00 0.00 0.00 79 1015.4
20260505033024 12 131 1.6 3.2 0.00 0.00 0.00 79 1015.5
20260505032830 12 180 0.0 3.2 0.00 0.00 0.00 79 1011.9
20260505032512 12 117 1.6 3.2 0.00 0.00 0.00 79 1015.6
20260505032008 12 117 3.2 4.8 0.00 0.00 0.00 79 1015.6
20260505031528 12 121 3.2 4.8 0.00 0.00 0.00 79 1015.6
20260505031004 12 117 3.2 4.8 0.00 0.00 0.00 78 1015.7
20260505030827 12 180 4.8 4.8 0.00 0.00 0.00 79 1012.2
20260505030504 12 133 4.8 4.8 0.00 0.00 0.00 78 1015.7
20260505030002 13 119 3.2 3.2 0.00 0.00 0.00 77 1015.8
20260505025826 13 180 0.0 0.0 0.00 0.00 0.00 77 1012.2
20260505025509 13 111 0.0 4.8 0.00 0.00 0.00 77 1015.8
20260505025004 13 123 1.6 4.8 0.00 0.00 0.00 77 1015.8
20260505024825 13 180 0.0 3.2 0.00 0.00 0.00 76 1012.2
20260505024507 13 119 3.2 4.8 0.00 0.00 0.00 76 1015.9
20260505024003 13 107 1.6 4.8 0.00 0.00 0.00 76 1015.9
20260505023824 13 180 0.0 4.8 0.00 0.00 0.00 75 1012.3
20260505023503 13 115 3.2 3.2 0.00 0.00 0.00 75 1015.8
20260505023010 13 130 0.0 3.2 0.00 0.00 0.00 75 1015.9
20260505022824 13 229 0.0 3.2 0.00 0.00 0.00 75 1012.3
20260505022503 13 115 1.6 3.2 0.00 0.00 0.00 75 1015.8
20260505022003 13 115 1.6 3.2 0.00 0.00 0.00 75 1015.8
20260505021823 13 229 0.0 0.0 0.00 0.00 0.00 73 1012.2
20260505021504 13 115 3.2 3.2 0.00 0.00 0.00 74 1015.7
20260505021002 13 115 1.6 3.2 0.00 0.00 0.00 74 1015.7
20260505020503 14 115 3.2 3.2 0.00 0.00 0.00 73 1015.7
20260505020004 14 115 1.6 3.2 0.00 0.00 0.00 72 1015.6
20260505015820 15 229 1.6 3.2 0.00 0.00 0.00 70 1012.0
20260505015504 14 115 1.6 3.2 0.00 0.00 0.00 72 1015.6
20260505015005 15 115 1.6 3.2 0.00 0.00 0.00 71 1015.5
20260505014820 15 229 0.0 1.6 0.00 0.00 0.00 69 1011.9
20260505014509 15 115 1.6 3.2 0.00 0.00 0.00 71 1015.5
20260505014002 15 115 1.6 1.6 0.00 0.00 0.00 70 1015.5
20260505013819 15 229 0.0 3.2 0.00 0.00 0.00 68 1011.8
20260505013504 15 115 1.6 3.2 0.00 0.00 0.00 69 1015.5
20260505013004 15 115 1.6 3.2 0.00 0.00 0.00 69 1015.5
20260505012505 16 115 1.6 3.2 0.00 0.00 0.00 67 1015.4
20260505012003 16 115 0.0 3.2 0.00 0.00 0.00 66 1015.3
20260505011517 16 115 1.6 3.2 0.00 0.00 0.00 66 1015.2
20260505011004 16 114 1.6 3.2 0.00 0.00 0.00 64 1015.2
20260505010503 17 120 1.6 3.2 0.00 0.00 0.00 64 1015.2
20260505010009 17 119 1.6 1.6 0.00 0.00 0.00 62 1015.1
20260505005814 17 229 0.0 1.6 0.00 0.00 0.00 62 1011.5
20260505005503 17 119 1.6 3.2 0.00 0.00 0.00 62 1015.1
20260505005003 17 119 1.6 3.2 0.00 0.00 0.00 61 1015.0
20260505004813 18 229 0.0 1.6 0.00 0.00 0.00 61 1011.4
20260505004506 18 125 1.6 3.2 0.00 0.00 0.00 60 1014.9
20260505004004 18 124 0.0 3.2 0.00 0.00 0.00 58 1014.9
20260505003813 18 229 0.0 3.2 0.00 0.00 0.00 58 1011.4
20260505003502 18 125 0.0 3.2 0.00 0.00 0.00 56 1014.9
20260505003008 19 242 0.0 3.2 0.00 0.00 0.00 56 1015.0
20260505002811 20 229 1.6 1.6 0.00 0.00 0.00 54 1011.3
20260505002506 20 235 0.0 3.2 0.00 0.00 0.00 54 1015.0
20260505002006 20 235 0.0 3.2 0.00 0.00 0.00 53 1015.0
20260505001810 20 223 0.0 0.0 0.00 0.00 0.00 53 1011.3
20260505001504 20 235 0.0 3.2 0.00 0.00 0.00 53 1015.0
20260505001003 21 235 0.0 3.2 0.00 0.00 0.00 51 1014.9
20260505000809 21 223 0.0 0.0 0.00 0.00 0.00 49 1011.3
20260505000506 21 235 0.0 1.6 0.00 0.00 0.00 49 1014.9
20260505000005 21 235 0.0 3.2 0.00 0.00 0.00 50 1014.9
20260504235808 21 223 0.0 0.0 0.00 0.00 0.00 50 1011.3
20260504235504 21 235 0.0 3.2 0.00 0.00 0.00 48 1014.9
20260504235002 21 235 0.0 3.2 0.00 0.00 0.00 47 1014.9
20260504234807 22 223 0.0 0.0 0.00 0.00 0.00 50 1011.3
20260504234503 22 235 0.0 3.2 0.00 0.00 0.00 46 1014.9
20260504234002 22 317 0.0 3.2 0.00 0.00 0.00 47 1014.8
20260504233805 22 223 0.0 3.2 0.00 0.00 0.00 49 1011.2
20260504233503 22 317 0.0 3.2 0.00 0.00 0.00 46 1014.7
20260504233007 22 10 0.0 8.0 0.00 0.00 0.00 44 1014.7
20260504232805 22 223 0.0 6.4 0.00 0.00 0.00 46 1011.2
20260504232503 22 254 1.6 8.0 0.00 0.00 0.00 45 1014.8
20260504232002 22 248 1.6 9.7 0.00 0.00 0.00 43 1014.8
20260504231804 23 236 1.6 8.0 0.00 0.00 0.00 45 1011.2
20260504231510 23 229 1.6 9.7 0.00 0.00 0.00 44 1014.8
20260504231007 23 205 1.6 6.4 0.00 0.00 0.00 43 1014.8
20260504230505 23 147 1.6 6.4 0.00 0.00 0.00 43 1014.7
20260504230010 23 180 1.6 6.4 0.00 0.00 0.00 43 1014.7
20260504225803 24 283 1.6 9.7 0.00 0.00 0.00 44 1011.1
20260504225506 24 294 1.6 8.0 0.00 0.00 0.00 41 1014.7
20260504225008 24 303 1.6 8.0 0.00 0.00 0.00 43 1014.7
20260504224800 24 249 0.0 6.4 0.00 0.00 0.00 44 1011.1
20260504224508 24 205 1.6 6.4 0.00 0.00 0.00 42 1014.7
20260504224003 24 259 0.0 9.7 0.00 0.00 0.00 42 1014.7
20260504223504 25 306 4.8 9.7 0.00 0.00 0.00 41 1014.7
20260504223004 25 304 1.6 8.0 0.00 0.00 0.00 43 1014.7
20260504222759 25 238 3.2 12.9 0.00 0.00 0.00 42 1011.1
20260504222503 25 206 3.2 9.7 0.00 0.00 0.00 42 1014.7
20260504222006 25 267 1.6 9.7 0.00 0.00 0.00 40 1014.7
20260504221758 25 274 1.6 11.3 0.00 0.00 0.00 40 1011.3
20260504221508 25 292 3.2 12.9 0.00 0.00 0.00 43 1014.8
20260504221003 25 247 3.2 12.9 0.00 0.00 0.00 39 1014.8
20260504220757 25 233 6.4 9.7 0.00 0.00 0.00 40 1011.3
20260504220506 25 237 6.4 11.3 0.00 0.00 0.00 40 1014.9
20260504220012 25 265 1.6 9.7 0.00 0.00 0.00 41 1014.7
20260504215755 25 261 1.6 11.3 0.00 0.00 0.00 43 1011.3
20260504215510 25 220 3.2 9.7 0.00 0.00 0.00 40 1014.8
20260504215006 25 248 1.6 4.8 0.00 0.00 0.00 43 1014.8
20260504214754 25 244 1.6 16.1 0.00 0.00 0.00 41 1011.3
20260504214528 25 116 0.0 12.9 0.00 0.00 0.00 43 1014.7
20260504214014 25 269 3.2 12.9 0.00 0.00 0.00 43 1014.8
20260504213754 25 208 1.6 11.3 0.00 0.00 0.00 41 1011.2
20260504213503 25 152 1.6 6.4 0.00 0.00 0.00 40 1014.7
20260504213012 25 309 1.6 6.4 0.00 0.00 0.00 43 1014.7
20260504212752 25 315 1.6 6.4 0.00 0.00 0.00 39 1011.2
20260504212503 25 244 1.6 6.4 0.00 0.00 0.00 42 1014.7
20260504212005 25 18 3.2 8.0 0.00 0.00 0.00 39 1014.8
20260504211752 25 64 1.6 8.0 0.00 0.00 0.00 40 1011.4
20260504211507 25 189 3.2 11.3 0.00 0.00 0.00 38 1014.9
20260504211003 25 313 3.2 11.3 0.00 0.00 0.00 43 1015.0
20260504210750 25 236 6.4 12.9 0.00 0.00 0.00 39 1011.5
20260504210503 25 61 3.2 11.3 0.00 0.00 0.00 42 1015.0
20260504210010 25 205 1.6 12.9 0.00 0.00 0.00 45 1015.0
20260504205750 25 159 3.2 12.9 0.00 0.00 0.00 39 1011.6
20260504205507 25 167 6.4 16.1 0.00 0.00 0.00 41 1015.1
20260504205007 25 325 3.2 16.1 0.00 0.00 0.00 42 1015.2
20260504204749 25 277 12.9 12.9 0.00 0.00 0.00 39 1011.7
20260504204516 25 29 3.2 11.3 0.00 0.00 0.00 39 1015.2
20260504204004 25 168 4.8 11.3 0.00 0.00 0.00 40 1015.2
20260504203747 25 218 8.0 11.3 0.00 0.00 0.00 37 1011.8
20260504203509 25 180 3.2 9.7 0.00 0.00 0.00 40 1015.3
20260504203022 25 282 3.2 14.5 0.00 0.00 0.00 39 1015.3
20260504202746 25 165 9.7 11.3 0.00 0.00 0.00 38 1011.9
20260504202511 25 209 1.6 14.5 0.00 0.00 0.00 47 1015.3
20260504202006 25 43 1.6 12.9 0.00 0.00 0.00 38 1015.3
20260504201522 25 265 4.8 8.0 0.00 0.00 0.00 39 1015.4
20260504201008 25 49 1.6 9.7 0.00 0.00 0.00 41 1015.4
20260504200744 25 246 4.8 11.3 0.00 0.00 0.00 37 1012.1
20260504200503 25 276 4.8 9.7 0.00 0.00 0.00 39 1015.5
20260504200017 25 230 1.6 12.9 0.00 0.00 0.00 42 1015.6
20260504195743 25 262 0.0 14.5 0.00 0.00 0.00 37 1012.3
20260504195505 25 330 3.2 12.9 0.00 0.00 0.00 38 1015.7
20260504195007 25 238 4.8 11.3 0.00 0.00 0.00 44 1015.8
20260504194743 25 241 4.8 14.5 0.00 0.00 0.00 40 1012.5
20260504194514 25 12 4.8 9.7 0.00 0.00 0.00 44 1015.9
20260504194007 25 56 0.0 8.0 0.00 0.00 0.00 44 1016.0
20260504193741 25 118 0.0 14.5 0.00 0.00 0.00 41 1012.7
20260504193514 25 272 1.6 12.9 0.00 0.00 0.00 42 1016.1
20260504193008 24 360 3.2 12.9 0.00 0.00 0.00 46 1016.2
20260504192512 24 236 1.6 8.0 0.00 0.00 0.00 52 1016.2
20260504192008 24 289 3.2 9.7 0.00 0.00 0.00 44 1016.3
20260504191739 24 211 3.2 11.3 0.00 0.00 0.00 42 1013.1
20260504191524 23 186 3.2 16.1 0.00 0.00 0.00 46 1016.4
20260504191006 23 207 3.2 16.1 0.00 0.00 0.00 43 1016.5
20260504190739 24 312 1.6 9.7 0.00 0.00 0.00 44 1013.2
20260504190511 23 323 4.8 9.7 0.00 0.00 0.00 48 1016.5
20260504190026 23 220 3.2 9.7 0.00 0.00 0.00 53 1016.6
20260504185738 23 202 4.8 11.3 0.00 0.00 0.00 43 1013.5
20260504185506 23 295 1.6 14.5 0.00 0.00 0.00 43 1016.7
20260504185006 23 294 4.8 17.7 0.00 0.00 0.00 45 1016.8
20260504184736 23 306 12.9 14.5 0.00 0.00 0.00 43 1013.6
20260504184515 23 316 8.0 17.7 0.00 0.00 0.00 48 1016.9
20260504184005 23 90 4.8 16.1 0.00 0.00 0.00 45 1017.0
20260504183507 23 306 1.6 14.5 0.00 0.00 0.00 45 1017.0
20260504183024 23 306 4.8 14.5 0.00 0.00 0.00 45 1017.1
20260504182734 23 292 8.0 14.5 0.00 0.00 0.00 43 1013.9
20260504182509 23 307 3.2 14.5 0.00 0.00 0.00 47 1017.1
20260504182010 23 227 4.8 17.7 0.00 0.00 0.00 48 1017.2
20260504181733 23 217 0.0 16.1 0.00 0.00 0.00 42 1014.0
20260504181518 23 327 1.6 17.7 0.00 0.00 0.00 46 1017.2
20260504181010 22 205 3.2 11.3 0.00 0.00 0.00 44 1017.2
20260504180732 23 360 3.2 9.7 0.00 0.00 0.00 42 1014.0
20260504180511 22 302 4.8 12.9 0.00 0.00 0.00 46 1017.3
20260504180014 22 178 1.6 16.1 0.00 0.00 0.00 51 1017.3
20260504175731 23 259 0.0 14.5 0.00 0.00 0.00 42 1014.2
20260504175507 22 63 4.8 16.1 0.00 0.00 0.00 47 1017.4
20260504175011 22 299 4.8 12.9 0.00 0.00 0.00 49 1017.5
20260504174730 22 329 3.2 16.1 0.00 0.00 0.00 45 1014.3
20260504174526 22 46 1.6 12.9 0.00 0.00 0.00 45 1017.4
20260504174005 22 272 4.8 17.7 0.00 0.00 0.00 44 1017.6
20260504173729 22 260 3.2 17.7 0.00 0.00 0.00 45 1014.6
20260504173510 22 182 3.2 17.7 0.00 0.00 0.00 48 1017.7
20260504173018 22 233 4.8 11.3 0.00 0.00 0.00 49 1017.8
20260504172727 22 267 11.3 16.1 0.00 0.00 0.00 43 1014.6
20260504172512 22 189 3.2 11.3 0.00 0.00 0.00 52 1017.7
20260504172011 22 150 4.8 11.3 0.00 0.00 0.00 48 1017.8
20260504171727 22 276 3.2 14.5 0.00 0.00 0.00 45 1014.8
20260504171524 22 352 3.2 12.9 0.00 0.00 0.00 45 1017.9
20260504171003 22 283 4.8 14.5 0.00 0.00 0.00 47 1018.0
20260504170726 21 207 6.4 9.7 0.00 0.00 0.00 45 1014.9
20260504170503 22 184 4.8 11.3 0.00 0.00 0.00 56 1018.1
20260504151003 17 34 6.4 14.5 0.00 0.00 0.00 54 1020.1
20260504150714 17 5 3.2 8.0 0.00 0.00 0.00 51 1017.3
20260504150501 17 11 4.8 9.7 0.00 0.00 0.00 59 1020.1
20260504141004 14 9 3.2 8.0 0.00 0.00 0.00 61 1020.6
20260504140707 15 62 3.2 8.0 0.00 0.00 0.00 58 1017.8
20260504140504 14 360 3.2 6.4 0.00 0.00 0.00 63 1020.6
20260504130506 12 29 6.4 9.7 0.00 0.00 0.00 73 1020.0
20260504110648 5 88 1.6 4.8 0.00 0.00 0.00 88 1016.4
20260504110502 3 133 6.4 6.4 0.00 0.00 0.00 89 1019.0
20260504100506 3 119 1.6 4.8 0.00 0.00 0.00 90 1019.1
20260504082007 3 161 8.0 9.7 0.00 0.00 0.00 87 1019.3
20260504081527 3 142 3.2 3.2 0.00 0.00 0.00 88 1019.5
20260504081004 3 115 3.2 3.2 0.00 0.00 0.00 88 1019.7
20260504080630 3 158 0.0 1.6 0.00 0.00 0.00 87 1017.2
20260504080507 3 117 3.2 3.2 0.00 0.00 0.00 88 1019.7
20260504050611 6 158 1.6 3.2 0.00 0.00 0.00 79 1016.9
20260504050507 6 108 1.6 3.2 0.00 0.00 0.00 78 1019.5
20260504050006 6 113 1.6 3.2 0.00 0.00 0.00 77 1019.5
20260504045610 6 158 1.6 3.2 0.00 0.00 0.00 77 1016.8
20260504045503 6 107 1.6 3.2 0.00 0.00 0.00 77 1019.5
20260504045005 6 117 3.2 3.2 0.00 0.00 0.00 77 1019.4
20260504044610 6 158 0.0 1.6 0.00 0.00 0.00 76 1016.7
20260504044511 6 111 1.6 3.2 0.00 0.00 0.00 76 1019.3
20260504044003 6 111 0.0 3.2 0.00 0.00 0.00 77 1019.2
20260504043609 7 158 0.0 0.0 0.00 0.00 0.00 75 1016.6
20260504043506 6 111 1.6 3.2 0.00 0.00 0.00 78 1019.2
20260504043016 6 107 1.6 3.2 0.00 0.00 0.00 77 1019.2
20260504042607 7 158 0.0 3.2 0.00 0.00 0.00 75 1016.6
20260504042506 6 113 1.6 3.2 0.00 0.00 0.00 78 1019.2
20260504042006 6 117 1.6 3.2 0.00 0.00 0.00 79 1019.1
20260504041518 6 102 1.6 3.2 0.00 0.00 0.00 81 1019.1
20260504041009 6 119 3.2 3.2 0.00 0.00 0.00 81 1019.0
20260504040503 6 120 1.6 4.8 0.00 0.00 0.00 81 1019.0
20260504040012 6 138 1.6 4.8 0.00 0.00 0.00 80 1019.0
20260504035604 7 158 0.0 4.8 0.00 0.00 0.00 74 1016.5
20260504035507 6 121 3.2 4.8 0.00 0.00 0.00 80 1019.1